Location: Austin
(30.3000°N, 97.7500°W)
Time: 06:01:00
(UTC-05:00)

Cosmos 1943 Rocket - Pass Details

Date: 16 June 2025
Orbit: 811 x 843 km, 71.0° (Epoch: 07 July)

Event Time Altitude Azimuth Distance (km) Brightness Sun altitude
Exits shadow 03:25:57 35° 315° (NW) 1,295 3.2 -29.8°
Drops below altitude 10° 03:30:09 10° 1° (N) 2,403 5.3 -29.3°
Sets 03:32:47 0° 10° (N) 3,340 6.3 -29.0°
